Cloud_Cover
32 28 5 0 0 0 0 0 4 5 5 5 5 5 5 43 20 44 42 70 31 25 53 35 98 99 97 16 9 100 92 77 100 100 100 100 100 100 100 99 100 100 100
97 45 1 1 0 0 4 0 1 5 5 5 5 5 10 13 26 65 11 46 58 45 38 99 56 35 74 14 5 33 100 100 41 100 100 100 100 100 100 100 100 100 100
98 18 6 3 0 0 0 0 0 5 5 5 5 5 17 56 89 10 19 54 72 100 100 100 100 41 32 35 96 94 100 100 100 100 100 65 86 99 100 100 100 100 100
71 88 40 4 0 0 0 0 0 1 4 5 5 23 100 100 100 100 100 100 100 95 66 7 19 5 30 97 100 100 100 100 100 100 100 100 100 69 100 100 100 100 100
46 95 3 6 4 0 0 0 0 5 5 5 5 5 8 98 100 100 100 100 82 9 13 33 67 54 5 91 100 100 100 83 100 100 96 99 99 100 100 100 100 100 100
47 10 0 3 5 1 0 0 0 5 5 5 5 5 100 100 100 100 20 7 5 58 5 5 12 21 51 90 100 100 60 99 100 76 86 100 99 95 68 100 100 100 100
14 1 0 0 0 0 0 0 1 5 5 5 5 42 72 100 79 32 5 25 16 5 97 100 16 16 21 100 100 100 100 100 100 71 100 100 58 62 68 100 100 100 100
5 0 0 2 9 0 0 0 4 4 5 5 5 99 100 100 100 89 47 15 41 37 44 91 9 5 26 100 99 100 100 98 96 100 100 97 90 100 90 100 100 100 100
4 1 0 0 2 5 7 0 5 5 5 10 99 79 43 25 10 7 22 67 50 100 92 27 5 83 79 33 100 100 100 18 60 76 68 100 99 100 100 100 100 100 100
5 0 31 0 0 5 5 1 5 5 5 4 5 47 32 6 15 5 59 98 98 43 99 11 97 99 5 5 21 57 38 70 90 18 51 100 98 99 94 97 100 100 100
3 0 0 0 0 78 0 0 2 5 5 5 5 74 100 69 82 95 12 58 27 100 53 19 100 100 6 10 5 5 5 29 44 5 5 5 7 77 98 85 100 100 100
0 0 0 0 0 0 2 0 8 4 18 10 4 97 58 94 66 5 100 21 5 99 100 100 100 99 81 5 97 5 28 84 33 100 80 5 5 10 25 64 79 100 100
0 0 0 0 0 0 0 0 1 0 0 4 5 98 36 19 100 100 98 99 47 90 96 31 49 100 68 26 87 69 46 63 68 88 100 5 5 5 5 49 100 100 100
0 0 0 0 0 0 0 0 4 5 0 3 4 5 6 84 88 61 53 60 72 54 22 46 38 7 96 3 21 100 94 93 63 85 97 10 8 3 4 1 35 95 100
0 0 0 0 0 0 0 0 0 2 6 26 3 11 23 40 75 98 62 74 67 93 100 64 60 6 4 86 70 29 99 1 95 92 75 78 7 0 0 0 6 63 100
0 0 0 0 0 0 0 0 0 13 36 10 48 70 4 25 93 56 97 99 99 72 5 18 4 0 3 26 93 18 8 100 97 81 95 12 82 17 0 0 89 48 5
0 0 0 0 0 0 0 0 6 85 96 99 87 4 8 95 70 5 100 100 84 5 5 4 12 91 72 100 83 31 60 82 9 54 4 48 4 86 9 0 22 23 4
0 0 0 0 0 0 0 0 6 89 99 100 97 100 25 61 100 82 96 72 35 27 6 14 100 54 100 100 31 44 45 44 63 100 62 100 86 24 21 59 0 0 0
2 0 0 0 0 5 0 0 3 24 26 100 50 62 27 11 92 77 97 100 18 32 67 14 27 79 30 100 42 77 100 82 100 9 38 93 78 94 37 95 16 0 20
0 0 0 0 2 60 0 0 12 97 71 100 98 65 74 97 21 4 15 53 0 44 30 2 2 7 53 94 67 100 100 14 3 37 73 97 38 91 100 99 15 49 98
0 0 0 0 5 6 0 0 1 0 22 78 100 16 5 38 39 2 62 25 0 19 0 0 5 98 19 47 100 100 32 100 32 6 16 97 84 89 100 48 42 30 88
0 0 0 0 5 0 0 0 0 2 7 52 82 68 6 37 65 10 0 31 10 4 0 0 0 21 23 100 98 4 0 63 0 83 41 32 2 100 91 100 66 53 34
0 0 0 0 4 5 0 0 0 0 0 4 76 4 3 40 3 0 0 0 0 0 59 13 1 5 16 65 76 12 5 0 4 5 94 12 1 18 52 99 78 57 36
0 0 0 0 0 2 0 0 0 0 0 1 5 82 18 5 16 7 1 0 0 0 29 9 98 3 4 94 100 5 90 4 2 5 27 75 62 9 0 97 100 47 100
0 0 0 0 0 0 0 0 0 0 0 0 0 15 0 78 3 0 36 0 0 0 70 4 0 0 5 23 100 8 5 92 18 4 0 0 43 19 2 100 99 71 84
0 0 0 0 1 5 0 0 0 0 0 0 1 0 0 0 3 0 0 0 0 0 0 0 8 0 0 4 51 0 63 70 9 5 0 4 4 6 24 64 97 76 98